Regional Weather Roundup
Issued by NWS

Home | Current Version | Previous Version | Graphics & Text | Print | Product List | Glossary On
Versions: 1 2 3 4 5 6 7 8 9 10 11 12 13 14 15 16 17 18 19 20 21 22 23 24 25 26 27 28 29 30 31 32 33 34 35 36 37 38 39 40 41 42 43 44 45 46 47 48 49 50
000
ASUS43 KFSD 140502
RWRSD

WEATHER ROUNDUP FOR SOUTH DAKOTA
NATIONAL WEATHER SERVICE SIOUX FALLS SD
1200 AM CDT MON JUL 14 2014

NOTE: "FAIR" INDICATES FEW OR NO CLOUDS BELOW 12,000 FEET WITH NO
SIGNIFICANT WEATHER AND/OR OBSTRUCTIONS TO VISIBILITY.


SDZ001>005-009-010-012>017-140600-
NORTHWEST AND NORTH CENTRAL SOUTH DAKOTA

CITY           SKY/WX    TMP DP  RH WIND       PRES   REMARKS
BUFFALO          N/A     62  44  51 N14       30.13R
FAITH            N/A     57  46  66 N8        30.14R
MOBRIDGE       CLEAR     54  49  83 CALM      30.06R
$$

SDZ012>016-024>037-041>051-057-063-072>074-140600-
SOUTHWEST AND SOUTH CENTRAL SOUTH DAKOTA

CITY           SKY/WX    TMP DP  RH WIND       PRES   REMARKS
RAPID CTY ARPT CLEAR     60  53  77 N7        30.19R
PIERRE         CLEAR     59  49  69 N8        30.07R
CUSTER         CLEAR     59  48  67 NE5       30.30S
ELLSWORTH AFB  CLEAR     63  54  73 NW2       30.19S
PHILIP         MOCLDY    65  51  60 N9        30.12S
PINE RIDGE     CLEAR     64  57  78 E6        30.17R
WINNER         MOCLDY    68  54  60 N7        30.09R
$$

SDZ004>011-016>023-039-040-140600-
NORTHEAST SOUTH DAKOTA

CITY           SKY/WX    TMP DP  RH WIND       PRES   REMARKS
ABERDEEN       CLEAR     56  45  66 NW8       30.03R
WATERTOWN      CLEAR     61  49  64 NW7       30.01R
SISSETON         N/A     59  50  72 NW8       29.98R
$$

SDZ017-020-022-023-036>040-048>070-140600-
SOUTHEAST SOUTH DAKOTA

CITY           SKY/WX    TMP DP  RH WIND       PRES   REMARKS
SIOUX FALLS    CLEAR     62  48  60 NW8       30.00S
HURON          CLEAR     55  50  83 NW6       30.03R
CHAMBERLAIN    CLEAR     65  53  65 N7        30.07S
MITCHELL       CLEAR     60  50  69 NW9       30.03S
YANKTON        CLEAR     64  54  68 NW7       30.02R
$$

ABBREVIATIONS USED IN REMARKS
   TC - TEMPERATURE IN CELSIUS
  WCI - WIND CHILL INDEX
   HX - HEAT INDEX
  VSB - VISIBILITY




USA.gov is the U.S. government's official web portal to all federal, state and local government web resources and services.